Time,TemperatureF,DewpointF,PressureIn,WindDirection,WindDirectionDegrees,WindSpeedMPH,WindSpeedGustMPH,Humidity,HourlyPrecipIn,Conditions,Clouds,dailyrainin,SoftwareType,DateUTC
2013-08-26 00:13:00,80.0,69.0,30.12,South,171,7.0,14.0,70,0.00,,,0.00,,2013-08-26 05:13:00,
2013-08-26 00:23:00,80.0,69.0,30.12,South,171,7.0,14.0,70,0.00,,,0.00,,2013-08-26 05:23:00,
2013-08-26 00:44:00,80.0,70.0,30.12,SSE,163,7.0,12.0,71,0.00,,,0.00,,2013-08-26 05:44:00,
2013-08-26 00:52:00,79.0,69.0,30.12,South,187,6.0,12.0,72,0.00,,,0.00,,2013-08-26 05:52:00,
2013-08-26 01:12:00,79.0,70.0,30.12,South,177,6.0,11.0,73,0.00,,,0.00,,2013-08-26 06:12:00,
2013-08-26 01:21:00,79.0,70.0,30.12,South,190,5.0,13.0,74,0.00,,,0.00,,2013-08-26 06:21:00,
2013-08-26 01:42:00,78.0,69.0,30.12,South,182,6.0,11.0,75,0.00,,,0.00,,2013-08-26 06:42:00,
2013-08-26 01:52:00,78.0,69.0,30.12,South,182,6.0,11.0,75,0.00,,,0.00,,2013-08-26 06:52:00,
2013-08-26 02:22:00,77.0,70.0,30.13,South,180,5.0,11.0,78,0.00,,,0.00,,2013-08-26 07:22:00,
2013-08-26 02:52:00,77.0,70.0,30.13,South,190,6.0,12.0,79,0.00,,,0.00,,2013-08-26 07:52:00,
2013-08-26 03:12:00,76.0,69.0,30.12,South,177,7.0,13.0,79,0.00,,,0.00,,2013-08-26 08:12:00,
2013-08-26 03:22:00,76.0,69.0,30.12,South,177,7.0,13.0,79,0.00,,,0.00,,2013-08-26 08:22:00,
2013-08-26 03:52:00,76.0,69.0,30.12,SSE,158,7.0,12.0,80,0.00,,,0.00,,2013-08-26 08:52:00,
2013-08-26 04:11:00,76.0,70.0,30.12,SSE,162,5.0,12.0,81,0.00,,,0.00,,2013-08-26 09:11:00,
2013-08-26 04:21:00,76.0,70.0,30.12,SSE,162,5.0,12.0,81,0.00,,,0.00,,2013-08-26 09:21:00,
2013-08-26 04:54:00,75.0,69.0,30.12,SSE,166,4.0,9.0,82,0.00,,,0.00,,2013-08-26 09:54:00,
2013-08-26 05:12:00,75.0,69.0,30.12,South,186,5.0,12.0,83,0.00,,,0.00,,2013-08-26 10:12:00,
2013-08-26 05:23:00,75.0,69.0,30.12,South,186,5.0,12.0,83,0.00,,,0.00,,2013-08-26 10:23:00,
2013-08-26 05:42:00,75.0,70.0,30.12,South,184,6.0,11.0,84,0.00,,,0.00,,2013-08-26 10:42:00,
2013-08-26 05:52:00,75.0,70.0,30.12,South,184,6.0,11.0,84,0.00,,,0.00,,2013-08-26 10:52:00,
2013-08-26 06:12:00,75.0,70.0,30.12,South,169,5.0,10.0,84,0.00,,,0.00,,2013-08-26 11:12:00,
2013-08-26 06:22:00,74.0,69.0,30.12,South,179,3.0,7.0,84,0.00,,,0.00,,2013-08-26 11:22:00,
2013-08-26 06:52:00,74.0,69.0,30.12,SSW,194,3.0,7.0,85,0.00,,,0.00,,2013-08-26 11:52:00,
2013-08-26 07:12:00,73.0,69.0,30.13,South,174,3.0,6.0,86,0.00,,,0.00,,2013-08-26 12:12:00,
2013-08-26 07:22:00,73.0,69.0,30.13,South,174,3.0,6.0,86,0.00,,,0.00,,2013-08-26 12:22:00,
2013-08-26 07:52:00,73.0,69.0,30.14,South,171,3.0,5.0,87,0.00,,,0.00,,2013-08-26 12:52:00,
2013-08-26 08:12:00,73.0,69.0,30.14,South,188,4.0,7.0,87,0.00,,,0.00,,2013-08-26 13:12:00,
2013-08-26 08:21:00,74.0,70.0,30.14,SSW,203,5.0,10.0,86,0.00,,,0.00,,2013-08-26 13:21:00,
2013-08-26 08:42:00,74.0,69.0,30.13,South,187,3.0,7.0,85,0.00,,,0.00,,2013-08-26 13:42:00,
2013-08-26 08:52:00,76.0,70.0,30.13,South,176,4.0,12.0,82,0.00,,,0.00,,2013-08-26 13:52:00,
2013-08-26 09:22:00,79.0,71.0,30.13,SE,129,4.0,12.0,76,0.00,,,0.00,,2013-08-26 14:22:00,
2013-08-26 09:42:00,80.0,71.0,30.13,South,171,4.0,9.0,73,0.00,,,0.00,,2013-08-26 14:42:00,
2013-08-26 09:52:00,81.0,71.0,30.13,SW,230,4.0,11.0,72,0.00,,,0.00,,2013-08-26 14:52:00,
2013-08-26 10:12:00,81.0,71.0,30.13,South,180,4.0,15.0,71,0.00,,,0.00,,2013-08-26 15:12:00,
2013-08-26 10:22:00,82.0,71.0,30.13,SSW,200,5.0,10.0,70,0.00,,,0.00,,2013-08-26 15:22:00,
2013-08-26 10:47:00,83.0,70.0,30.13,South,180,4.0,13.0,66,0.00,,,0.00,,2013-08-26 15:47:00,
2013-08-26 10:59:00,83.0,70.0,30.13,South,180,4.0,13.0,66,0.00,,,0.00,,2013-08-26 15:59:00,
2013-08-26 11:17:00,85.0,71.0,30.13,SE,126,5.0,11.0,64,0.00,,,0.00,,2013-08-26 16:17:00,
2013-08-26 11:29:00,86.0,71.0,30.12,SSW,192,5.0,10.0,61,0.00,,,0.00,,2013-08-26 16:29:00,
2013-08-26 11:59:00,87.0,70.0,30.12,South,183,4.0,9.0,57,0.00,,,0.00,,2013-08-26 16:59:00,
2013-08-26 12:12:00,88.0,71.0,30.12,SSE,163,4.0,14.0,58,0.00,,,0.00,,2013-08-26 17:12:00,
2013-08-26 12:24:00,88.0,71.0,30.12,SSE,163,4.0,14.0,58,0.00,,,0.00,,2013-08-26 17:24:00,
2013-08-26 12:43:00,89.0,70.0,30.11,SE,138,5.0,12.0,53,0.00,,,0.00,,2013-08-26 17:43:00,
2013-08-26 12:53:00,89.0,70.0,30.11,SE,142,7.0,13.0,54,0.00,,,0.00,,2013-08-26 17:53:00,
2013-08-26 13:12:00,90.0,71.0,30.11,SSE,149,2.0,12.0,54,0.00,,,0.00,,2013-08-26 18:12:00,
2013-08-26 13:22:00,91.0,72.0,30.10,SE,143,3.0,11.0,54,0.00,,,0.00,,2013-08-26 18:22:00,
2013-08-26 13:52:00,91.0,71.0,30.09,South,175,5.0,13.0,53,0.00,,,0.00,,2013-08-26 18:52:00,
2013-08-26 14:11:00,92.0,71.0,30.09,WSW,248,2.0,8.0,51,0.00,,,0.00,,2013-08-26 19:11:00,
2013-08-26 14:22:00,92.0,70.0,30.09,South,179,8.0,13.0,49,0.00,,,0.00,,2013-08-26 19:22:00,
2013-08-26 14:42:00,93.0,71.0,30.08,South,183,2.0,9.0,49,0.00,,,0.00,,2013-08-26 19:42:00,
2013-08-26 14:52:00,93.0,71.0,30.08,WNW,282,4.0,11.0,49,0.00,,,0.00,,2013-08-26 19:52:00,
2013-08-26 15:11:00,93.0,69.0,30.07,SW,233,5.0,14.0,46,0.00,,,0.00,,2013-08-26 20:11:00,
2013-08-26 15:22:00,93.0,69.0,30.07,SW,233,5.0,14.0,46,0.00,,,0.00,,2013-08-26 20:22:00,
2013-08-26 15:43:00,93.0,71.0,30.06,SSE,167,8.0,13.0,49,0.00,,,0.00,,2013-08-26 20:43:00,
2013-08-26 15:52:00,93.0,71.0,30.06,SSE,167,8.0,13.0,49,0.00,,,0.00,,2013-08-26 20:52:00,
2013-08-26 16:44:00,93.0,71.0,30.04,SSW,192,6.0,17.0,49,0.00,,,0.00,,2013-08-26 21:44:00,
2013-08-26 16:55:00,93.0,71.0,30.04,SSW,192,6.0,17.0,49,0.00,,,0.00,,2013-08-26 21:55:00,
2013-08-26 17:16:00,93.0,72.0,30.04,South,175,5.0,16.0,50,0.00,,,0.00,,2013-08-26 22:16:00,
2013-08-26 17:26:00,93.0,70.0,30.04,SSE,153,6.0,11.0,47,0.00,,,0.00,,2013-08-26 22:26:00,
2013-08-26 17:53:00,93.0,70.0,30.03,SSE,166,4.0,10.0,48,0.00,,,0.00,,2013-08-26 22:53:00,
2013-08-26 18:12:00,92.0,69.0,30.03,South,175,5.0,13.0,47,0.00,,,0.00,,2013-08-26 23:12:00,
2013-08-26 18:22:00,92.0,69.0,30.03,South,175,5.0,13.0,47,0.00,,,0.00,,2013-08-26 23:22:00,
2013-08-26 18:42:00,91.0,67.0,30.03,SSW,205,7.0,13.0,46,0.00,,,0.00,,2013-08-26 23:42:00,
2013-08-26 18:52:00,91.0,67.0,30.03,SSW,205,7.0,13.0,46,0.00,,,0.00,,2013-08-26 23:52:00,
2013-08-26 19:21:00,90.0,69.0,30.02,South,191,5.0,12.0,50,0.00,,,0.00,,2013-08-27 00:21:00,
2013-08-26 19:42:00,89.0,68.0,30.03,South,179,5.0,11.0,50,0.00,,,0.00,,2013-08-27 00:42:00,
2013-08-26 19:52:00,88.0,68.0,30.03,SSW,192,4.0,9.0,52,0.00,,,0.00,,2013-08-27 00:52:00,
2013-08-26 20:12:00,87.0,68.0,30.03,South,182,5.0,7.0,53,0.00,,,0.00,,2013-08-27 01:12:00,
2013-08-26 20:22:00,86.0,68.0,30.03,South,177,4.0,6.0,55,0.00,,,0.00,,2013-08-27 01:22:00,
2013-08-26 20:52:00,84.0,68.0,30.03,South,175,4.0,7.0,59,0.00,,,0.00,,2013-08-27 01:52:00,
2013-08-26 21:21:00,83.0,68.0,30.03,SSW,192,6.0,10.0,61,0.00,,,0.00,,2013-08-27 02:21:00,
2013-08-26 21:52:00,83.0,68.0,30.03,South,182,4.0,9.0,61,0.00,,,0.00,,2013-08-27 02:52:00,
2013-08-26 22:12:00,83.0,68.0,30.03,South,188,7.0,11.0,61,0.00,,,0.00,,2013-08-27 03:12:00,
2013-08-26 22:22:00,83.0,68.0,30.03,South,188,7.0,11.0,61,0.00,,,0.00,,2013-08-27 03:22:00,
2013-08-26 22:45:00,81.0,67.0,30.03,South,178,8.0,12.0,63,0.00,,,0.00,,2013-08-27 03:45:00,
2013-08-26 22:58:00,81.0,67.0,30.03,South,178,8.0,12.0,63,0.00,,,0.00,,2013-08-27 03:58:00,
2013-08-26 23:18:00,81.0,68.0,30.03,SSW,200,7.0,14.0,64,0.00,,,0.00,,2013-08-27 04:18:00,
2013-08-26 23:47:00,80.0,67.0,30.04,South,181,7.0,15.0,65,0.00,,,0.00,,2013-08-27 04:47:00,
2013-08-26 23:54:00,80.0,67.0,30.04,South,181,7.0,15.0,65,0.00,,,0.00,,2013-08-27 04:54:00,